TimeCDT,TemperatureF,Dew PointF,Humidity,Sea Level PressureIn,VisibilityMPH,Wind Direction,Wind SpeedMPH,Gust SpeedMPH,PrecipitationIn,Events,Conditions,WindDirDegrees,DateUTC
12:13 AM,68.0,60.8,78,29.69,10.0,ESE,10.4,-,N/A,,Mostly Cloudy,110,2013-05-19 05:13:00
12:33 AM,69.8,60.8,73,29.69,10.0,ESE,8.1,-,N/A,,Scattered Clouds,110,2013-05-19 05:33:00
12:53 AM,66.2,60.8,83,29.68,10.0,ESE,9.2,-,N/A,,Mostly Cloudy,110,2013-05-19 05:53:00
1:13 AM,68.0,60.8,78,29.69,10.0,ESE,9.2,-,N/A,,Overcast,120,2013-05-19 06:13:00
1:33 AM,68.0,60.8,78,29.67,10.0,ESE,9.2,-,N/A,,Scattered Clouds,110,2013-05-19 06:33:00
1:54 AM,69.8,60.8,73,29.68,10.0,SE,9.2,-,N/A,,Scattered Clouds,130,2013-05-19 06:54:00
2:13 AM,69.8,60.8,73,29.68,10.0,ESE,10.4,-,N/A,,Mostly Cloudy,120,2013-05-19 07:13:00
2:33 AM,69.8,60.8,73,29.68,10.0,ESE,8.1,-,N/A,,Scattered Clouds,120,2013-05-19 07:33:00
2:53 AM,69.8,60.8,73,29.68,10.0,ESE,6.9,-,N/A,,Scattered Clouds,120,2013-05-19 07:53:00
3:13 AM,71.6,60.8,69,29.68,10.0,SE,9.2,-,N/A,,Scattered Clouds,130,2013-05-19 08:13:00
3:34 AM,73.4,62.6,69,29.66,10.0,SE,12.7,19.6,N/A,,Mostly Cloudy,140,2013-05-19 08:34:00
3:54 AM,69.8,60.8,73,29.71,10.0,WSW,18.4,33.4,N/A,Thunderstorm,Thunderstorm,250,2013-05-19 08:54:00
4:13 AM,64.4,60.8,88,29.70,4.0,Calm,Calm,-,0.15,Rain-Thunderstorm,Heavy Thunderstorms and Rain,0,2013-05-19 09:13:00
4:33 AM,64.4,60.8,88,29.68,7.0,Calm,Calm,-,0.18,Rain,Heavy Rain,0,2013-05-19 09:33:00
4:53 AM,62.6,60.8,94,29.66,10.0,East,8.1,-,0.23,Rain,Rain,80,2013-05-19 09:53:00
5:13 AM,62.6,60.8,94,29.65,7.0,East,12.7,18.4,0.01,,Mostly Cloudy,90,2013-05-19 10:13:00
5:33 AM,62.6,60.8,94,29.63,10.0,East,9.2,-,0.01,,Scattered Clouds,90,2013-05-19 10:33:00
5:53 AM,62.6,60.8,94,29.61,10.0,East,9.2,-,0.01,,Scattered Clouds,100,2013-05-19 10:53:00
6:13 AM,62.6,60.8,94,29.61,7.0,ESE,6.9,-,N/A,,Scattered Clouds,120,2013-05-19 11:13:00
6:34 AM,64.4,60.8,88,29.60,10.0,East,13.8,18.4,N/A,,Scattered Clouds,100,2013-05-19 11:34:00
7:13 AM,64.4,62.6,94,29.58,5.0,ESE,13.8,-,N/A,,Mostly Cloudy,110,2013-05-19 12:13:00
7:33 AM,66.2,62.6,88,29.56,5.0,East,10.4,-,N/A,,Scattered Clouds,80,2013-05-19 12:33:00
7:53 AM,66.2,62.6,88,29.59,5.0,ESE,11.5,-,N/A,,Clear,120,2013-05-19 12:53:00
8:13 AM,66.2,64.4,94,29.62,4.0,SE,15.0,21.9,N/A,,Mostly Cloudy,130,2013-05-19 13:13:00
8:33 AM,66.2,64.4,94,29.63,4.0,SE,13.8,18.4,N/A,,Overcast,130,2013-05-19 13:33:00
8:53 AM,68.0,64.4,88,29.63,5.0,SE,13.8,19.6,N/A,,Mostly Cloudy,140,2013-05-19 13:53:00
9:13 AM,69.8,64.4,83,29.62,7.0,SE,17.3,-,N/A,,Scattered Clouds,140,2013-05-19 14:13:00
9:33 AM,71.6,64.4,78,29.61,7.0,SSE,18.4,28.8,N/A,,Scattered Clouds,150,2013-05-19 14:33:00
9:53 AM,71.6,64.4,78,29.60,10.0,SE,18.4,28.8,N/A,,Scattered Clouds,140,2013-05-19 14:53:00
10:13 AM,73.4,62.6,69,29.61,10.0,SSE,20.7,28.8,N/A,,Scattered Clouds,150,2013-05-19 15:13:00
10:34 AM,73.4,64.4,73,29.62,10.0,South,18.4,24.2,N/A,,Scattered Clouds,170,2013-05-19 15:34:00
10:53 AM,73.4,64.4,73,29.61,10.0,South,10.4,20.7,N/A,,Mostly Cloudy,170,2013-05-19 15:53:00
11:14 AM,73.4,62.6,69,29.61,10.0,South,15.0,24.2,N/A,,Mostly Cloudy,180,2013-05-19 16:14:00
11:33 AM,71.6,60.8,69,29.61,10.0,South,13.8,24.2,N/A,,Overcast,180,2013-05-19 16:33:00
11:53 AM,73.4,60.8,65,29.61,10.0,SSW,15.0,21.9,N/A,,Mostly Cloudy,200,2013-05-19 16:53:00
12:13 PM,73.4,60.8,65,29.62,10.0,South,18.4,21.9,N/A,,Overcast,190,2013-05-19 17:13:00
12:33 PM,75.2,60.8,61,29.61,10.0,South,16.1,24.2,N/A,,Mostly Cloudy,170,2013-05-19 17:33:00
12:53 PM,75.2,60.8,61,29.61,10.0,South,16.1,25.3,N/A,,Mostly Cloudy,180,2013-05-19 17:53:00
1:13 PM,77.0,60.8,57,29.61,10.0,South,16.1,24.2,N/A,,Mostly Cloudy,180,2013-05-19 18:13:00
1:33 PM,77.0,60.8,57,29.59,10.0,SSW,13.8,17.3,N/A,,Mostly Cloudy,200,2013-05-19 18:33:00
2:13 PM,77.0,60.8,57,29.59,10.0,South,10.4,-,N/A,,Scattered Clouds,190,2013-05-19 19:13:00
2:33 PM,75.2,60.8,61,29.59,10.0,SSW,11.5,-,N/A,,Clear,200,2013-05-19 19:33:00
2:54 PM,75.2,60.8,61,29.60,10.0,SSW,9.2,-,N/A,,Scattered Clouds,200,2013-05-19 19:54:00
3:13 PM,73.4,60.8,65,29.61,10.0,South,10.4,-,N/A,,Light Drizzle,190,2013-05-19 20:13:00
3:33 PM,71.6,62.6,73,29.62,10.0,SSW,10.4,-,N/A,Rain,Light Rain,200,2013-05-19 20:33:00
3:53 PM,71.6,62.6,73,29.62,10.0,SSW,10.4,16.1,N/A,Rain,Light Rain,200,2013-05-19 20:53:00
4:13 PM,69.8,59.0,68,29.61,10.0,SSW,10.4,-,N/A,Rain,Light Rain,200,2013-05-19 21:13:00
4:34 PM,68.0,60.8,78,29.61,10.0,SSW,9.2,-,N/A,Rain,Rain,200,2013-05-19 21:34:00
4:53 PM,68.0,60.8,78,29.61,10.0,South,8.1,-,0.01,Rain,Light Rain,180,2013-05-19 21:53:00
5:13 PM,66.2,62.6,88,29.60,10.0,South,8.1,-,0.02,Rain,Rain,180,2013-05-19 22:13:00
5:33 PM,66.2,62.6,88,29.59,7.0,South,5.8,-,0.03,Rain,Light Rain,180,2013-05-19 22:33:00
5:53 PM,66.2,62.6,88,29.59,10.0,South,5.8,-,0.06,Rain,Rain,190,2013-05-19 22:53:00
6:13 PM,66.2,62.6,88,29.58,7.0,South,6.9,-,0.01,Rain,Light Rain,170,2013-05-19 23:13:00
6:33 PM,66.2,62.6,88,29.57,7.0,ESE,5.8,-,0.02,Rain,Light Rain,110,2013-05-19 23:33:00
6:53 PM,66.2,62.6,88,29.57,7.0,SE,9.2,-,0.02,Rain,Light Rain,130,2013-05-19 23:53:00
7:13 PM,66.2,62.6,88,29.56,7.0,SE,9.2,-,N/A,Rain,Light Rain,130,2013-05-20 00:13:00
7:33 PM,66.2,62.6,88,29.54,7.0,ESE,8.1,-,N/A,Rain,Light Rain,110,2013-05-20 00:33:00
7:53 PM,66.2,62.6,88,29.55,7.0,SE,5.8,-,N/A,,Clear,130,2013-05-20 00:53:00
8:13 PM,66.2,62.6,88,29.55,7.0,East,8.1,-,N/A,,Clear,100,2013-05-20 01:13:00
8:34 PM,66.2,62.6,88,29.56,7.0,ESE,4.6,-,N/A,,Clear,110,2013-05-20 01:34:00
8:53 PM,64.4,62.6,94,29.57,7.0,Calm,Calm,-,N/A,,Clear,0,2013-05-20 01:53:00
9:13 PM,64.4,62.6,94,29.58,7.0,South,5.8,-,N/A,,Mostly Cloudy,170,2013-05-20 02:13:00
9:33 PM,64.4,60.8,88,29.57,7.0,SSE,5.8,-,N/A,,Overcast,160,2013-05-20 02:33:00
9:53 PM,64.4,62.6,94,29.56,7.0,SSE,4.6,-,N/A,,Scattered Clouds,160,2013-05-20 02:53:00
10:13 PM,64.4,60.8,88,29.56,4.0,SSE,4.6,-,N/A,,Clear,150,2013-05-20 03:13:00
10:33 PM,64.4,62.6,94,29.55,4.0,East,8.1,-,N/A,,Scattered Clouds,100,2013-05-20 03:33:00
11:13 PM,64.4,60.8,88,29.54,4.0,ENE,4.6,-,N/A,,Overcast,70,2013-05-20 04:13:00
11:34 PM,64.4,60.8,88,29.54,4.0,ENE,9.2,-,N/A,,Overcast,70,2013-05-20 04:34:00
11:54 PM,64.4,60.8,88,29.53,7.0,ENE,10.4,-,N/A,,Overcast,70,2013-05-20 04:54:00